Weather History for Covington, KY

Change the Weather History Date:

Thursday, June 20, 2013

  Actual Average Record
Temperature  
Mean Temperature 74 °F 73 °F  
Max Temperature 85 °F 83 °F 98 °F (1933)
Min Temperature 63 °F 63 °F 48 °F (1982)
Degree Days  
Heating Degree Days 0 0  
Month to date heating degree days 1 12  
Since 1 June heating degree days 1 12  
Since 1 July heating degree days 4981 4972  
Cooling Degree Days 9 9  
Month to date cooling degree days 133 131  
Year to date cooling degree days 272 225  
Since 1 June cooling degree days 133 131  
Growing Degree Days 24 (Base 50)    
Moisture  
Dew Point 56 °F    
Average Humidity 58    
Maximum Humidity 78    
Minimum Humidity 37    
Precipitation  
Precipitation 0.00 in 0.13 in 1.18 in (1978)
Month to date precipitation 1.82 2.85  
Year to date precipitation 19.70 21.44  
Snow  
Snow 0.00 in 0.00 in 0.00 in ()
Month to date snowfall 0.0 0.0  
Since 1 June snowfall 0.0 0.0  
Since 1 July snowfall 25.2 22.1  
Snow Depth 0.00 in    
Sea Level Pressure  
Sea Level Pressure 30.16 in    
Wind  
Wind Speed 5 mph (SE)    
Max Wind Speed 9 mph    
Max Gust Speed 13 mph    
Visibility 10 miles    
Events      
T = Trace of Precipitation, MM = Missing Value Source: NWS Daily Summary

Daily Weather History Graph

Daily Weather History Graph

Search for Another Location

Airport:

Trip Planner

Search our weather history database for the weather conditions in past years. The results will help you decide how hot, cold, wet, or windy it might be!

Date:

Astronomy

Jun. 20, 2013 Rise Set
Actual Time 6:12 AM EDT 9:07 PM EDT
Civil Twilight 5:40 AM EDT 9:39 PM EDT
Nautical Twilight 5:00 AM EDT 10:20 PM EDT
Astronomical Twilight 4:13 AM EDT 11:07 PM EDT
Moon 6:09 PM EDT (6/20) 3:37 AM EDT (6/20)
Length of Visible Light 15h 59m
Length of Day
14h 54m
Waxing Gibbous, 89% of the Moon is Illuminated
Jun 20
Waxing Gibbous
Jun 23
Full
Jun 30
Last Quarter
Jul 8
New
Jul 15
First Quarter

Hourly Weather History & Observations

Time (EDT) Temp. Heat Index Dew Point Humidity Pressure Visibility Wind Dir Wind Speed Gust Speed Precip Events Conditions
12:52 AM 69.1 °F - 54.0 °F 58% 30.12 in 10.0 mi Calm Calm - N/A   Partly Cloudy
1:52 AM 66.9 °F - 53.1 °F 61% 30.12 in 10.0 mi ESE 3.5 mph - N/A   Partly Cloudy
2:52 AM 64.9 °F - 54.0 °F 68% 30.12 in 10.0 mi ESE 4.6 mph - N/A   Partly Cloudy
3:52 AM 64.0 °F - 55.0 °F 73% 30.12 in 10.0 mi ESE 4.6 mph - N/A   Scattered Clouds
4:52 AM 64.0 °F - 55.0 °F 73% 30.12 in 10.0 mi Calm Calm - N/A   Partly Cloudy
5:52 AM 64.0 °F - 54.0 °F 70% 30.14 in 10.0 mi Calm Calm - N/A   Scattered Clouds
6:52 AM 63.0 °F - 55.0 °F 75% 30.16 in 10.0 mi ESE 3.5 mph - N/A   Mostly Cloudy
7:52 AM 66.9 °F - 57.0 °F 70% 30.18 in 10.0 mi SE 3.5 mph - N/A   Mostly Cloudy
8:52 AM 72.0 °F - 60.1 °F 66% 30.19 in 10.0 mi ESE 5.8 mph - N/A   Mostly Cloudy
9:52 AM 75.9 °F - 60.1 °F 58% 30.19 in 10.0 mi SSE 6.9 mph - N/A   Mostly Cloudy
10:52 AM 78.1 °F - 59.0 °F 52% 30.19 in 10.0 mi SSE 9.2 mph - N/A   Mostly Cloudy
11:52 AM 80.1 °F 80.7 °F 59.0 °F 48% 30.19 in 10.0 mi SSW 4.6 mph - N/A   Mostly Cloudy
12:52 PM 81.0 °F 81.0 °F 57.0 °F 44% 30.19 in 10.0 mi Variable 5.8 mph - N/A   Mostly Cloudy
1:52 PM 82.0 °F 81.7 °F 57.0 °F 42% 30.18 in 10.0 mi ENE 6.9 mph - N/A   Mostly Cloudy
2:52 PM 82.9 °F 82.6 °F 57.9 °F 42% 30.17 in 10.0 mi SSE 3.5 mph - N/A   Scattered Clouds
3:52 PM 84.0 °F 82.9 °F 55.0 °F 37% 30.16 in 10.0 mi East 3.5 mph - N/A   Scattered Clouds
4:52 PM 84.0 °F 82.9 °F 55.0 °F 37% 30.15 in 10.0 mi Variable 5.8 mph - N/A   Scattered Clouds
5:52 PM 82.9 °F 82.0 °F 55.0 °F 38% 30.15 in 10.0 mi SSE 4.6 mph - N/A   Scattered Clouds
6:52 PM 82.9 °F 82.1 °F 55.9 °F 39% 30.15 in 10.0 mi ESE 9.2 mph - N/A   Scattered Clouds
7:52 PM 81.0 °F 80.8 °F 55.9 °F 42% 30.14 in 10.0 mi SE 9.2 mph - N/A   Scattered Clouds
8:52 PM 75.0 °F - 57.9 °F 55% 30.14 in 10.0 mi SSE 4.6 mph - N/A   Scattered Clouds
9:52 PM 72.0 °F - 57.9 °F 61% 30.15 in 10.0 mi South 4.6 mph - N/A   Partly Cloudy
10:52 PM 71.1 °F - 57.0 °F 61% 30.16 in 10.0 mi SSE 4.6 mph - N/A   Clear
11:52 PM 70.0 °F - 55.9 °F 61% 30.17 in 10.0 mi ESE 3.5 mph - N/A   Clear